sat.trackr.live / text

‹ back to catalog

STARLINK-33568

NORAD 62779 · 2025-015X

PAYLOAD ACTIVE UNKNOWN

§ Identity

Operator
Country
US
Launch date
2025-01-21
Launch site
AFWTR
Launch vehicle
Mass (kg)
RCS (m²)

Purposes: comms

External: N2YO · Heavens-Above · Gunter

§ Orbital elements

Epoch: 2026-09-21T20:10:07.283712Z

Period
93.85 min
Inclination
53.1577°
Eccentricity
0.0001134
Mean motion
15.34403647 rev/d
Perigee alt
461.9 km
Apogee alt
463.5 km
Semi-major
6,840.8 km
B*
4.7248e-4
RAAN
127.7436°
Arg perigee
87.2294°
Mean anomaly
272.8838°
Rev number
9,440

§ Raw data

STARLINK-335681 62779U 25015X   26264.84036208  .00015622  00000+0  47248-3 0  99982 62779  53.1577 127.7436 0001134  87.2294 272.8838 15.34403647 94404

JSON: /api/v1/satellites/62779 · /tle

For live sub-satellite position, see the globe view (requires WebGL).

§ Visibility from observer

Set your observer location to see the next 7 days of passes ≥ 10°. The values pass through the URL so the page stays shareable.

No JS? Fill the form by hand. The geolocation button needs JavaScript.